Quillayute, WA
on Sunday, February 10, 2013

Sunday
Previous Day Next Day
Daily Summary
 ActualAverageRecord
Temperature
Mean Temperature °F 42°F  
Max Temperature 48°F 49°F 65°F (1970)
Min Temperature 32°F 35°F 19°F (1989)
Degree Days
Heating Degree Days 25 23  
Month to date heating degree days 217 230  
Since 1 July heating degree days 3325 3435  
Cooling Degree Days 0 0  
Month to date cooling degree days 0 0  
Year to date cooling degree days 0 0  
Moisture
Dew Point 36°F   
Average Humidity 84    
Maximum Humidity 92    
Minimum Humidity 76    
Precipitation
Precipitation 0.01 in 0.39 in 2.22 in (1990)
Month to date precipitation 2.02 3.88  
Year to date precipitation 12.36 18.49  
Wind
Wind Speed 1 mph   
Max Wind Speed 6 mph   
Max Gust Speed 8 mph   
Visibility 3 miles   
Events Fog , Rain   

Key: T is trace of precipitation, MM is missing value
Source: NWS Daily Summary
Time(PST)TemperatureDew PointHumidity Pressure Visibility Wind DirectionWind SpeedGust SpeedPrecipitationEvents Conditions
12:03 AM 41.0°F 37.4°F 87% 30.33 in 0.5 miles Calm Calm - N/A Fog Fog
12:12 AM 39.2°F 37.4°F 93% 30.33 in 0.2 miles Calm Calm - N/A Fog Fog
12:27 AM 39.2°F 35.6°F 87% 30.33 in 0.2 miles Calm Calm - N/A Fog Fog
12:49 AM 39.2°F 35.6°F 87% 30.34 in 0.2 miles East 4.6 mph - N/A Fog Fog
12:53 AM 39.0°F 35.1°F 86% 30.34 in 0.2 miles East 4.6 mph - N/A Fog Fog
1:53 AM 37.9°F 36.0°F 93% 30.35 in 0.2 miles Calm Calm - N/A Fog Fog
2:53 AM 37.9°F 34.0°F 86% 30.35 in 0.2 miles Calm Calm - N/A Fog Fog
3:35 AM 35.6°F 33.8°F 93% 30.35 in 0.5 miles Calm Calm - N/A Fog Fog
3:43 AM 35.6°F 33.8°F 93% 30.35 in 0.2 miles Calm Calm - N/A Fog Fog
3:53 AM 36.0°F 33.1°F 89% 30.35 in 0.2 miles Calm Calm - N/A Fog Fog
4:00 AM 35.6°F 33.8°F 93% 30.35 in 1.0 miles East 4.6 mph - N/A   Overcast
4:03 AM 35.6°F 33.8°F 93% 30.35 in 1.5 miles East 4.6 mph - N/A   Overcast
4:06 AM 35.6°F 33.8°F 93% 30.35 in 4.0 miles East 4.6 mph - N/A   Overcast
4:16 AM 35.6°F 32.0°F 87% 30.35 in 1.5 miles Calm Calm - N/A   Overcast
4:19 AM 35.6°F 32.0°F 87% 30.35 in 0.8 miles Calm Calm - N/A   Overcast
4:26 AM 33.8°F 30.2°F 87% 30.35 in 0.5 miles Calm Calm - N/A Fog Fog
4:50 AM 35.6°F 30.2°F 81% 30.35 in 1.2 miles Calm Calm - N/A   Scattered Clouds
4:53 AM 35.1°F 30.9°F 85% 30.36 in 2.0 miles Calm Calm - N/A   Scattered Clouds
5:02 AM 33.8°F 30.2°F 87% 30.35 in 4.0 miles Calm Calm - N/A   Partly Cloudy
5:53 AM 33.1°F 30.0°F 89% 30.36 in 4.0 miles Calm Calm - N/A   Mostly Cloudy
6:19 AM 33.8°F 28.4°F 81% 30.36 in 5.0 miles Calm Calm - N/A   Scattered Clouds
6:53 AM 32.0°F 28.9°F 88% 30.36 in 6.0 miles Calm Calm - N/A   Clear
7:24 AM 32.0°F 28.4°F 87% 30.36 in 1.8 miles Calm Calm - N/A   Clear
7:32 AM 32.0°F 28.4°F 87% 30.36 in 1.2 miles Calm Calm - N/A   Clear
7:36 AM 32.0°F 28.4°F 87% 30.35 in 2.5 miles Calm Calm - N/A   Clear
7:43 AM 32.0°F 28.4°F 87% 30.35 in 5.0 miles Calm Calm - N/A   Clear
7:53 AM 33.1°F 28.9°F 85% 30.36 in 5.0 miles Calm Calm - N/A   Clear
8:28 AM 33.8°F 30.2°F 87% 30.36 in 5.0 miles Calm Calm - N/A   Scattered Clouds
8:37 AM 33.8°F 30.2°F 87% 30.36 in 5.0 miles Calm Calm - N/A   Mostly Cloudy
8:53 AM 35.1°F 30.9°F 85% 30.37 in 5.0 miles Calm Calm - N/A   Overcast
9:31 AM 37.4°F 33.8°F 87% 30.37 in 2.5 miles Calm Calm - N/A   Overcast
9:34 AM 37.4°F 33.8°F 87% 30.37 in 1.2 miles Calm Calm - N/A   Overcast
9:40 AM 39.2°F 35.6°F 87% 30.37 in 0.2 miles Calm Calm - N/A Fog Fog
9:53 AM 39.9°F 37.0°F 89% 30.38 in 0.2 miles East 3.5 mph - N/A Fog Fog
10:04 AM 41.0°F 37.4°F 87% 30.38 in 0.8 miles Calm Calm - N/A   Overcast
10:12 AM 41.0°F 37.4°F 87% 30.38 in 1.8 miles East 3.5 mph - N/A   Mostly Cloudy
10:19 AM 41.0°F 37.4°F 87% 30.38 in 5.0 miles Calm Calm - N/A   Mostly Cloudy
10:37 AM 42.8°F 37.4°F 81% 30.37 in 6.0 miles Calm Calm - N/A   Haze
10:53 AM 45.0°F 39.0°F 80% 30.38 in 6.0 miles SE 3.5 mph - N/A   Haze
11:51 AM 46.4°F 39.2°F 76% 30.36 in 6.0 miles Calm Calm - N/A   Haze
11:53 AM 46.9°F 39.0°F 74% 30.37 in 6.0 miles Calm Calm - N/A   Haze
12:53 PM 46.9°F 39.9°F 77% 30.36 in 5.0 miles SSW 3.5 mph - N/A   Haze
1:23 PM 46.4°F 39.2°F 76% 30.35 in 5.0 miles West 3.5 mph - N/A   Haze
1:31 PM 46.4°F 39.2°F 76% 30.35 in 5.0 miles West 3.5 mph - N/A   Haze
1:53 PM 46.0°F 39.9°F 79% 30.35 in 4.0 miles WSW 5.8 mph - N/A   Haze
2:53 PM 46.0°F 39.0°F 76% 30.36 in 4.0 miles Calm Calm - N/A   Haze
3:53 PM 46.9°F 39.9°F 77% 30.35 in 4.0 miles Calm Calm - N/A   Haze
4:53 PM 46.9°F 39.0°F 74% 30.35 in 5.0 miles NNE 3.5 mph - N/A   Haze
5:53 PM 45.0°F 39.9°F 82% 30.35 in 5.0 miles Calm Calm - N/A   Haze
6:53 PM 44.1°F 39.9°F 85% 30.35 in 5.0 miles Calm Calm - N/A   Overcast
7:53 PM 44.1°F 39.9°F 85% 30.35 in 4.0 miles Calm Calm - N/A   Overcast
8:53 PM 44.1°F 39.9°F 85% 30.36 in 4.0 miles NNW 3.5 mph - N/A   Overcast
9:53 PM 44.1°F 39.9°F 85% 30.35 in 2.0 miles Calm Calm - 0.00 in Rain Light Rain
10:01 PM 42.8°F 39.2°F 87% 30.34 in 1.5 miles Calm Calm - 0.00 in Rain Light Rain
10:11 PM 42.8°F 39.2°F 87% 30.34 in 1.2 miles SSW 3.5 mph - 0.00 in Rain Light Rain
10:22 PM 42.8°F 39.2°F 87% 30.34 in 1.0 miles Calm Calm - 0.01 in Rain Light Rain
10:33 PM 42.8°F 39.2°F 87% 30.34 in 2.0 miles Calm Calm - 0.01 in   Overcast
10:41 PM 42.8°F 39.2°F 87% 30.34 in 5.0 miles Calm Calm - 0.01 in   Mostly Cloudy
10:53 PM 43.0°F 39.0°F 86% 30.35 in 4.0 miles Calm Calm - 0.01 in   Mostly Cloudy
11:04 PM 44.6°F 39.2°F 81% 30.34 in 5.0 miles Calm Calm - N/A   Haze
11:15 PM 42.8°F 39.2°F 87% 30.34 in 1.2 miles Calm Calm - N/A   Overcast
11:22 PM 42.8°F 37.4°F 81% 30.34 in 0.8 miles Calm Calm - N/A   Overcast
11:26 PM 42.8°F 37.4°F 81% 30.34 in 1.8 miles Calm Calm - N/A   Overcast
11:28 PM 42.8°F 37.4°F 81% 30.34 in 3.0 miles Calm Calm - N/A   Overcast
11:38 PM 42.8°F 37.4°F 81% 30.34 in 2.0 miles Calm Calm - N/A   Overcast
11:46 PM 42.8°F 39.2°F 87% 30.34 in 1.8 miles Calm Calm - N/A   Overcast
11:53 PM 42.1°F 37.9°F 85% 30.35 in 1.5 miles East 3.5 mph - N/A   Overcast
11:58 PM 42.8°F 37.4°F 81% 30.34 in 3.0 miles East 3.5 mph - N/A   Overcast
Moon Phase
Feb. 10 Feb. 17 Feb. 25 Mar. 04 Mar. 11
Sunrise:07:32 AM (PST) Moon Rise:07:19 AM (PST)2/10
Sunset:05:33 PM (PST) Moon Set:06:39 PM (PST)2/10

Copyright © 2014 The Weather Underground, Inc.